Year,Month,Day,Hour,Minute,Value (Times are PST for temperature in C)
2007,08,14,00,00,13.40
2007,08,14,00,01,13.30
2007,08,14,00,02,13.30
2007,08,14,00,03,13.30
2007,08,14,00,04,13.30
2007,08,14,00,05,13.20
2007,08,14,00,06,13.20
2007,08,14,00,07,13.20
2007,08,14,00,08,13.20
2007,08,14,00,09,13.10
2007,08,14,00,10,13.10
2007,08,14,00,11,13.10
2007,08,14,00,12,13.10
2007,08,14,00,13,13.00
2007,08,14,00,14,13.00
2007,08,14,00,15,13.00
2007,08,14,00,16,12.90
2007,08,14,00,17,12.90
2007,08,14,00,18,12.90
2007,08,14,00,19,12.90
2007,08,14,00,20,12.90
2007,08,14,00,21,12.80
2007,08,14,00,22,12.80
2007,08,14,00,23,12.80
2007,08,14,00,24,12.80
2007,08,14,00,25,12.90
2007,08,14,00,26,12.90
2007,08,14,00,27,12.90
2007,08,14,00,28,12.90
2007,08,14,00,29,12.90
2007,08,14,00,30,12.90
2007,08,14,00,31,12.80
2007,08,14,00,32,12.80
2007,08,14,00,33,12.80
2007,08,14,00,34,12.80
2007,08,14,00,35,12.80
2007,08,14,00,36,12.80
2007,08,14,00,37,12.90
2007,08,14,00,38,12.90
2007,08,14,00,39,12.90
2007,08,14,00,40,12.90
2007,08,14,00,41,12.90
2007,08,14,00,42,13.00
2007,08,14,00,43,13.00
2007,08,14,00,44,13.00
2007,08,14,00,45,13.00
2007,08,14,00,46,13.00
2007,08,14,00,47,13.00
2007,08,14,00,48,13.00
2007,08,14,00,49,13.00
2007,08,14,00,50,13.00
2007,08,14,00,51,13.00
2007,08,14,00,52,13.00
2007,08,14,00,53,13.00
2007,08,14,00,54,12.90
2007,08,14,00,55,12.90
2007,08,14,00,56,12.90
2007,08,14,00,57,12.90
2007,08,14,00,58,12.80
2007,08,14,00,59,12.80
2007,08,14,01,00,12.80
2007,08,14,01,01,12.70
2007,08,14,01,02,12.70
2007,08,14,01,03,12.70
2007,08,14,01,04,12.70
2007,08,14,01,05,12.80
2007,08,14,01,06,12.80
2007,08,14,01,07,12.80
2007,08,14,01,08,12.80
2007,08,14,01,09,12.80
2007,08,14,01,10,12.80
2007,08,14,01,11,12.80
2007,08,14,01,12,12.80
2007,08,14,01,13,12.80
2007,08,14,01,14,12.80
2007,08,14,01,15,12.80
2007,08,14,01,16,12.80
2007,08,14,01,17,12.80
2007,08,14,01,18,12.80
2007,08,14,01,19,12.70
2007,08,14,01,20,12.80
2007,08,14,01,21,12.80
2007,08,14,01,22,12.80
2007,08,14,01,23,12.80
2007,08,14,01,24,12.80
2007,08,14,01,25,12.80
2007,08,14,01,26,12.80
2007,08,14,01,27,12.80
2007,08,14,01,28,12.80
2007,08,14,01,29,12.80
2007,08,14,01,30,12.80
2007,08,14,01,31,12.70
2007,08,14,01,32,12.70
2007,08,14,01,33,12.70
2007,08,14,01,34,12.70
2007,08,14,01,35,12.70
2007,08,14,01,36,12.70
2007,08,14,01,37,12.70
2007,08,14,01,38,12.60
2007,08,14,01,39,12.60
2007,08,14,01,40,12.60
2007,08,14,01,41,12.60
2007,08,14,01,42,12.60
2007,08,14,01,43,12.60
2007,08,14,01,44,12.60
2007,08,14,01,45,12.60
2007,08,14,01,46,12.50
2007,08,14,01,47,12.50
2007,08,14,01,48,12.50
2007,08,14,01,49,12.60
2007,08,14,01,50,12.60
2007,08,14,01,51,12.60
2007,08,14,01,52,12.60
2007,08,14,01,53,12.60
2007,08,14,01,54,12.60
2007,08,14,01,55,12.60
2007,08,14,01,56,12.60
2007,08,14,01,57,12.60
2007,08,14,01,58,12.60
2007,08,14,01,59,12.60
2007,08,14,02,00,12.60
2007,08,14,02,01,12.60
2007,08,14,02,02,12.60
2007,08,14,02,03,12.60
2007,08,14,02,04,12.60
2007,08,14,02,05,12.60
2007,08,14,02,06,12.60
2007,08,14,02,07,12.60
2007,08,14,02,08,12.70
2007,08,14,02,09,12.70
2007,08,14,02,10,12.70
2007,08,14,02,11,12.70
2007,08,14,02,12,12.80
2007,08,14,02,13,12.80
2007,08,14,02,14,12.80
2007,08,14,02,15,12.80
2007,08,14,02,16,12.80
2007,08,14,02,17,12.80
2007,08,14,02,18,12.80
2007,08,14,02,19,12.80
2007,08,14,02,20,12.70
2007,08,14,02,21,12.70
2007,08,14,02,22,12.70
2007,08,14,02,23,12.70
2007,08,14,02,24,12.60
2007,08,14,02,25,12.60
2007,08,14,02,26,12.60
2007,08,14,02,27,12.60
2007,08,14,02,28,12.50
2007,08,14,02,29,12.50
2007,08,14,02,30,12.50
2007,08,14,02,31,12.40
2007,08,14,02,32,12.40
2007,08,14,02,33,12.40
2007,08,14,02,34,12.30
2007,08,14,02,35,12.30
2007,08,14,02,36,12.30
2007,08,14,02,37,12.30
2007,08,14,02,38,12.20
2007,08,14,02,39,12.20
2007,08,14,02,40,12.20
2007,08,14,02,41,12.20
2007,08,14,02,42,12.20
2007,08,14,02,43,12.20
2007,08,14,02,44,12.20
2007,08,14,02,45,12.10
2007,08,14,02,46,12.10
2007,08,14,02,47,12.10
2007,08,14,02,48,12.20
2007,08,14,02,49,12.20
2007,08,14,02,50,12.20
2007,08,14,02,51,12.20
2007,08,14,02,52,12.20
2007,08,14,02,53,12.20
2007,08,14,02,54,12.20
2007,08,14,02,55,12.20
2007,08,14,02,56,12.20
2007,08,14,02,57,12.20
2007,08,14,02,58,12.20
2007,08,14,02,59,12.10
2007,08,14,03,00,12.10
2007,08,14,03,01,12.10
2007,08,14,03,02,12.10
2007,08,14,03,03,12.10
2007,08,14,03,04,12.10
2007,08,14,03,05,12.10
2007,08,14,03,06,12.10
2007,08,14,03,07,12.10
2007,08,14,03,08,12.10
2007,08,14,03,09,12.10
2007,08,14,03,10,12.10
2007,08,14,03,11,12.10
2007,08,14,03,12,12.10
2007,08,14,03,13,12.00
2007,08,14,03,14,12.00
2007,08,14,03,15,12.00
2007,08,14,03,16,12.00
2007,08,14,03,17,12.00
2007,08,14,03,18,12.00
2007,08,14,03,19,11.90
2007,08,14,03,20,11.90
2007,08,14,03,21,11.90
2007,08,14,03,22,11.90
2007,08,14,03,23,11.90
2007,08,14,03,24,11.90
2007,08,14,03,25,11.90
2007,08,14,03,26,11.90
2007,08,14,03,27,11.80
2007,08,14,03,28,11.80
2007,08,14,03,29,11.80
2007,08,14,03,30,11.80
2007,08,14,03,31,11.80
2007,08,14,03,32,11.80
2007,08,14,03,33,11.80
2007,08,14,03,34,11.80
2007,08,14,03,35,11.70
2007,08,14,03,36,11.70
2007,08,14,03,37,11.70
2007,08,14,03,38,11.70
2007,08,14,03,39,11.70
2007,08,14,03,40,11.70
2007,08,14,03,41,11.80
2007,08,14,03,42,11.80
2007,08,14,03,43,11.80
2007,08,14,03,44,11.80
2007,08,14,03,45,11.90
2007,08,14,03,46,11.90
2007,08,14,03,47,11.90
2007,08,14,03,48,11.90
2007,08,14,03,49,12.00
2007,08,14,03,50,12.00
2007,08,14,03,51,11.90
2007,08,14,03,52,12.00
2007,08,14,03,53,11.90
2007,08,14,03,54,11.90
2007,08,14,03,55,11.90
2007,08,14,03,56,11.90
2007,08,14,03,57,11.90
2007,08,14,03,58,12.00
2007,08,14,03,59,12.00
2007,08,14,04,00,11.90
2007,08,14,04,01,11.90
2007,08,14,04,02,11.90
2007,08,14,04,03,11.90
2007,08,14,04,04,11.90
2007,08,14,04,05,11.90
2007,08,14,04,06,11.90
2007,08,14,04,07,11.90
2007,08,14,04,08,11.90
2007,08,14,04,09,11.90
2007,08,14,04,10,11.90
2007,08,14,04,11,11.80
2007,08,14,04,12,11.80
2007,08,14,04,13,11.80
2007,08,14,04,14,11.80
2007,08,14,04,15,11.80
2007,08,14,04,16,11.70
2007,08,14,04,17,11.70
2007,08,14,04,18,11.70
2007,08,14,04,19,11.70
2007,08,14,04,20,11.70
2007,08,14,04,21,11.70
2007,08,14,04,22,11.70
2007,08,14,04,23,11.70
2007,08,14,04,24,11.70
2007,08,14,04,25,11.70
2007,08,14,04,26,11.70
2007,08,14,04,27,11.70
2007,08,14,04,28,11.70
2007,08,14,04,29,11.70
2007,08,14,04,30,11.60
2007,08,14,04,31,11.60
2007,08,14,04,32,11.60
2007,08,14,04,33,11.60
2007,08,14,04,34,11.60
2007,08,14,04,35,11.60
2007,08,14,04,36,11.50
2007,08,14,04,37,11.50
2007,08,14,04,38,11.40
2007,08,14,04,39,11.40
2007,08,14,04,40,11.40
2007,08,14,04,41,11.40
2007,08,14,04,42,11.30
2007,08,14,04,43,11.30
2007,08,14,04,44,11.30
2007,08,14,04,45,11.20
2007,08,14,04,46,11.20
2007,08,14,04,47,11.20
2007,08,14,04,48,11.20
2007,08,14,04,49,11.20
2007,08,14,04,50,11.20
2007,08,14,04,51,11.10
2007,08,14,04,52,11.10
2007,08,14,04,53,11.10
2007,08,14,04,54,11.10
2007,08,14,04,55,11.00
2007,08,14,04,56,11.00
2007,08,14,04,57,11.00
2007,08,14,04,58,11.10
2007,08,14,04,59,11.10
2007,08,14,05,00,11.10
2007,08,14,05,01,11.10
2007,08,14,05,02,11.10
2007,08,14,05,03,11.10
2007,08,14,05,04,11.10
2007,08,14,05,05,11.10
2007,08,14,05,06,11.10
2007,08,14,05,07,11.10
2007,08,14,05,08,11.10
2007,08,14,05,09,11.10
2007,08,14,05,10,11.10
2007,08,14,05,11,11.10
2007,08,14,05,12,11.10
2007,08,14,05,13,11.10
2007,08,14,05,14,11.10
2007,08,14,05,15,11.10
2007,08,14,05,16,11.10
2007,08,14,05,17,11.10
2007,08,14,05,18,11.10
2007,08,14,05,19,11.10
2007,08,14,05,20,11.10
2007,08,14,05,21,11.10
2007,08,14,05,22,11.10
2007,08,14,05,23,11.10
2007,08,14,05,24,11.10
2007,08,14,05,25,11.10
2007,08,14,05,26,11.10
2007,08,14,05,27,11.10
2007,08,14,05,28,11.10
2007,08,14,05,29,11.10
2007,08,14,05,30,11.10
2007,08,14,05,31,11.10
2007,08,14,05,32,11.10
2007,08,14,05,33,11.10
2007,08,14,05,34,11.10
2007,08,14,05,35,11.10
2007,08,14,05,36,11.10
2007,08,14,05,37,11.10
2007,08,14,05,38,11.10
2007,08,14,05,39,11.10
2007,08,14,05,40,11.10
2007,08,14,05,41,11.10
2007,08,14,05,42,11.10
2007,08,14,05,43,11.10
2007,08,14,05,44,11.10
2007,08,14,05,45,11.10
2007,08,14,05,46,11.10
2007,08,14,05,47,11.10
2007,08,14,05,48,11.10
2007,08,14,05,49,11.00
2007,08,14,05,50,11.00
2007,08,14,05,51,11.00
2007,08,14,05,52,10.90
2007,08,14,05,53,10.90
2007,08,14,05,54,10.90
2007,08,14,05,55,10.90
2007,08,14,05,56,10.90
2007,08,14,05,57,10.90
2007,08,14,05,58,10.90
2007,08,14,05,59,10.80
2007,08,14,06,00,10.80
2007,08,14,06,01,10.80
2007,08,14,06,02,10.80
2007,08,14,06,03,10.80
2007,08,14,06,04,10.80
2007,08,14,06,05,10.80
2007,08,14,06,06,10.80
2007,08,14,06,07,10.80
2007,08,14,06,08,10.70
2007,08,14,06,09,10.70
2007,08,14,06,10,10.70
2007,08,14,06,11,10.70
2007,08,14,06,12,10.70
2007,08,14,06,13,10.70
2007,08,14,06,14,10.70
2007,08,14,06,15,10.70
2007,08,14,06,16,10.70
2007,08,14,06,17,10.70
2007,08,14,06,18,10.70
2007,08,14,06,19,10.70
2007,08,14,06,20,10.70
2007,08,14,06,21,10.70
2007,08,14,06,22,10.70
2007,08,14,06,23,10.70
2007,08,14,06,24,10.70
2007,08,14,06,25,10.70
2007,08,14,06,26,10.60
2007,08,14,06,27,10.60
2007,08,14,06,28,10.60
2007,08,14,06,29,10.60
2007,08,14,06,30,10.50
2007,08,14,06,31,10.50
2007,08,14,06,32,10.50
2007,08,14,06,33,10.40
2007,08,14,06,34,10.40
2007,08,14,06,35,10.40
2007,08,14,06,36,10.40
2007,08,14,06,37,10.40
2007,08,14,06,38,10.40
2007,08,14,06,39,10.40
2007,08,14,06,40,10.40
2007,08,14,06,41,10.40
2007,08,14,06,42,10.40
2007,08,14,06,43,10.40
2007,08,14,06,44,10.40
2007,08,14,06,45,10.40
2007,08,14,06,46,10.40
2007,08,14,06,47,10.40
2007,08,14,06,48,10.40
2007,08,14,06,49,10.40
2007,08,14,06,50,10.40
2007,08,14,06,51,10.40
2007,08,14,06,52,10.40
2007,08,14,06,53,10.50
2007,08,14,06,54,10.50
2007,08,14,06,55,10.50
2007,08,14,06,56,10.50
2007,08,14,06,57,10.50
2007,08,14,06,58,10.60
2007,08,14,06,59,10.60
2007,08,14,07,00,10.60
2007,08,14,07,01,10.60
2007,08,14,07,02,10.60
2007,08,14,07,03,10.60
2007,08,14,07,04,10.60
2007,08,14,07,05,10.60
2007,08,14,07,06,10.70
2007,08,14,07,07,10.70
2007,08,14,07,08,10.70
2007,08,14,07,09,10.70
2007,08,14,07,10,10.70
2007,08,14,07,11,10.70
2007,08,14,07,12,10.70
2007,08,14,07,13,10.80
2007,08,14,07,14,10.80
2007,08,14,07,15,10.80
2007,08,14,07,16,10.80
2007,08,14,07,17,10.80
2007,08,14,07,18,10.90
2007,08,14,07,19,10.90
2007,08,14,07,20,10.90
2007,08,14,07,21,10.90
2007,08,14,07,22,10.90
2007,08,14,07,23,10.90
2007,08,14,07,24,11.00
2007,08,14,07,25,11.00
2007,08,14,07,26,11.10
2007,08,14,07,27,11.10
2007,08,14,07,28,11.10
2007,08,14,07,29,11.10
2007,08,14,07,30,11.20
2007,08,14,07,31,11.20
2007,08,14,07,32,11.20
2007,08,14,07,33,11.30
2007,08,14,07,34,11.40
2007,08,14,07,35,11.40
2007,08,14,07,36,11.50
2007,08,14,07,37,11.50
2007,08,14,07,38,11.60
2007,08,14,07,39,11.60
2007,08,14,07,40,11.60
2007,08,14,07,41,11.70
2007,08,14,07,42,11.70
2007,08,14,07,43,11.70
2007,08,14,07,44,11.80
2007,08,14,07,45,11.80
2007,08,14,07,46,11.80
2007,08,14,07,47,11.80
2007,08,14,07,48,11.90
2007,08,14,07,49,11.90
2007,08,14,07,50,12.00
2007,08,14,07,51,12.00
2007,08,14,07,52,12.10
2007,08,14,07,53,12.10
2007,08,14,07,54,12.10
2007,08,14,07,55,12.20
2007,08,14,07,56,12.20
2007,08,14,07,57,12.20
2007,08,14,07,58,12.30
2007,08,14,07,59,12.30
2007,08,14,08,00,12.30
2007,08,14,08,01,12.40
2007,08,14,08,02,12.40
2007,08,14,08,03,12.40
2007,08,14,08,04,12.40
2007,08,14,08,05,12.50
2007,08,14,08,06,12.50
2007,08,14,08,07,12.60
2007,08,14,08,08,12.60
2007,08,14,08,09,12.60
2007,08,14,08,10,12.70
2007,08,14,08,11,12.70
2007,08,14,08,12,12.80
2007,08,14,08,13,12.80
2007,08,14,08,14,12.80
2007,08,14,08,15,12.80
2007,08,14,08,16,12.90
2007,08,14,08,17,12.90
2007,08,14,08,18,12.90
2007,08,14,08,19,13.00
2007,08,14,08,20,13.00
2007,08,14,08,21,13.10
2007,08,14,08,22,13.10
2007,08,14,08,23,13.10
2007,08,14,08,24,13.20
2007,08,14,08,25,13.20
2007,08,14,08,26,13.30
2007,08,14,08,27,13.30
2007,08,14,08,28,13.30
2007,08,14,08,29,13.40
2007,08,14,08,30,13.40
2007,08,14,08,31,13.50
2007,08,14,08,32,13.50
2007,08,14,08,33,13.60
2007,08,14,08,34,13.60
2007,08,14,08,35,13.70
2007,08,14,08,36,13.80
2007,08,14,08,37,13.80
2007,08,14,08,38,13.90
2007,08,14,08,39,14.10
2007,08,14,08,40,14.20
2007,08,14,08,41,14.30
2007,08,14,08,42,14.30
2007,08,14,08,43,14.40
2007,08,14,08,44,14.50
2007,08,14,08,45,14.60
2007,08,14,08,46,14.70
2007,08,14,08,47,14.80
2007,08,14,08,48,14.90
2007,08,14,08,49,15.00
2007,08,14,08,50,15.00
2007,08,14,08,51,15.00
2007,08,14,08,52,15.10
2007,08,14,08,53,15.20
2007,08,14,08,54,15.20
2007,08,14,08,55,15.30
2007,08,14,08,56,15.40
2007,08,14,08,57,15.40
2007,08,14,08,58,15.50
2007,08,14,08,59,15.60
2007,08,14,09,00,15.70
2007,08,14,09,01,15.80
2007,08,14,09,02,15.90
2007,08,14,09,03,16.00
2007,08,14,09,04,16.10
2007,08,14,09,05,16.20
2007,08,14,09,06,16.30
2007,08,14,09,07,16.40
2007,08,14,09,08,16.40
2007,08,14,09,09,16.50
2007,08,14,09,10,16.60
2007,08,14,09,11,16.70
2007,08,14,09,12,16.70
2007,08,14,09,13,16.80
2007,08,14,09,14,16.80
2007,08,14,09,15,16.90
2007,08,14,09,16,16.90
2007,08,14,09,17,17.00
2007,08,14,09,18,17.10
2007,08,14,09,19,17.10
2007,08,14,09,20,17.20
2007,08,14,09,21,17.20
2007,08,14,09,22,17.20
2007,08,14,09,23,17.20
2007,08,14,09,24,17.30
2007,08,14,09,25,17.30
2007,08,14,09,26,17.30
2007,08,14,09,27,17.40
2007,08,14,09,28,17.40
2007,08,14,09,29,17.50
2007,08,14,09,30,17.50
2007,08,14,09,31,17.60
2007,08,14,09,32,17.60
2007,08,14,09,33,17.70
2007,08,14,09,34,17.70
2007,08,14,09,35,17.80
2007,08,14,09,36,17.90
2007,08,14,09,37,17.90
2007,08,14,09,38,18.00
2007,08,14,09,39,18.00
2007,08,14,09,40,18.10
2007,08,14,09,41,18.10
2007,08,14,09,42,18.10
2007,08,14,09,43,18.10
2007,08,14,09,44,18.10
2007,08,14,09,45,18.20
2007,08,14,09,46,18.20
2007,08,14,09,47,18.20
2007,08,14,09,48,18.30
2007,08,14,09,49,18.30
2007,08,14,09,50,18.30
2007,08,14,09,51,18.30
2007,08,14,09,52,18.30
2007,08,14,09,53,18.30
2007,08,14,09,54,18.30
2007,08,14,09,55,18.30
2007,08,14,09,56,18.30
2007,08,14,09,57,18.40
2007,08,14,09,58,18.50
2007,08,14,09,59,18.50
2007,08,14,10,00,18.60
2007,08,14,10,01,18.70
2007,08,14,10,02,18.70
2007,08,14,10,03,18.70
2007,08,14,10,04,18.70
2007,08,14,10,05,18.70
2007,08,14,10,06,18.70
2007,08,14,10,07,18.70
2007,08,14,10,08,18.70
2007,08,14,10,09,18.70
2007,08,14,10,10,18.80
2007,08,14,10,11,18.80
2007,08,14,10,12,18.80
2007,08,14,10,13,18.90
2007,08,14,10,14,18.90
2007,08,14,10,15,19.00
2007,08,14,10,16,19.10
2007,08,14,10,17,19.10
2007,08,14,10,18,19.10
2007,08,14,10,19,19.20
2007,08,14,10,20,19.20
2007,08,14,10,21,19.20
2007,08,14,10,22,19.20
2007,08,14,10,23,19.10
2007,08,14,10,24,19.10
2007,08,14,10,25,19.10
2007,08,14,10,26,19.00
2007,08,14,10,27,19.00
2007,08,14,10,28,19.00
2007,08,14,10,29,19.10
2007,08,14,10,30,19.10
2007,08,14,10,31,19.20
2007,08,14,10,32,19.20
2007,08,14,10,33,19.20
2007,08,14,10,34,19.30
2007,08,14,10,35,19.40
2007,08,14,10,36,19.40
2007,08,14,10,37,19.50
2007,08,14,10,38,19.60
2007,08,14,10,39,19.70
2007,08,14,10,40,19.60
2007,08,14,10,41,19.60
2007,08,14,10,42,19.60
2007,08,14,10,43,19.70
2007,08,14,10,44,19.70
2007,08,14,10,45,19.80
2007,08,14,10,46,19.80
2007,08,14,10,47,19.90
2007,08,14,10,48,19.90
2007,08,14,10,49,20.00
2007,08,14,10,50,20.00
2007,08,14,10,51,20.10
2007,08,14,10,52,20.20
2007,08,14,10,53,20.40
2007,08,14,10,54,20.50
2007,08,14,10,55,20.50
2007,08,14,10,56,20.60
2007,08,14,10,57,20.60
2007,08,14,10,58,20.60
2007,08,14,10,59,20.70
2007,08,14,11,00,20.70
2007,08,14,11,01,20.70
2007,08,14,11,02,20.70
2007,08,14,11,03,20.80
2007,08,14,11,04,20.80
2007,08,14,11,05,21.00
2007,08,14,11,06,21.00
2007,08,14,11,07,21.10
2007,08,14,11,08,21.20
2007,08,14,11,09,21.20
2007,08,14,11,10,21.30
2007,08,14,11,11,21.40
2007,08,14,11,12,21.50
2007,08,14,11,13,21.60
2007,08,14,11,14,21.70
2007,08,14,11,15,21.80
2007,08,14,11,16,21.90
2007,08,14,11,17,22.10
2007,08,14,11,18,22.20
2007,08,14,11,19,22.30
2007,08,14,11,20,22.40
2007,08,14,11,21,22.50
2007,08,14,11,22,22.60
2007,08,14,11,23,22.60
2007,08,14,11,24,22.70
2007,08,14,11,25,22.70
2007,08,14,11,26,22.80
2007,08,14,11,27,22.90
2007,08,14,11,28,22.90
2007,08,14,11,29,22.90
2007,08,14,11,30,22.90
2007,08,14,11,31,22.90
2007,08,14,11,32,22.70
2007,08,14,11,33,22.60
2007,08,14,11,34,22.60
2007,08,14,11,35,22.60
2007,08,14,11,36,22.60
2007,08,14,11,37,22.70
2007,08,14,11,38,22.70
2007,08,14,11,39,22.80
2007,08,14,11,40,22.80
2007,08,14,11,41,22.90
2007,08,14,11,42,23.00
2007,08,14,11,43,23.00
2007,08,14,11,44,23.00
2007,08,14,11,45,23.00
2007,08,14,11,46,22.90
2007,08,14,11,47,22.90
2007,08,14,11,48,23.00
2007,08,14,11,49,23.10
2007,08,14,11,50,23.10
2007,08,14,11,51,23.10
2007,08,14,11,52,23.10
2007,08,14,11,53,23.10
2007,08,14,11,54,23.20
2007,08,14,11,55,23.30
2007,08,14,11,56,23.40
2007,08,14,11,57,23.50
2007,08,14,11,58,23.60
2007,08,14,11,59,23.70
2007,08,14,12,00,23.70
2007,08,14,12,01,23.60
2007,08,14,12,02,23.60
2007,08,14,12,03,23.50
2007,08,14,12,04,23.40
2007,08,14,12,05,23.30
2007,08,14,12,06,23.20
2007,08,14,12,07,23.10
2007,08,14,12,08,23.10
2007,08,14,12,09,23.10
2007,08,14,12,10,23.10
2007,08,14,12,11,23.20
2007,08,14,12,12,23.30
2007,08,14,12,13,23.40
2007,08,14,12,14,23.50
2007,08,14,12,15,23.70
2007,08,14,12,16,23.80
2007,08,14,12,17,24.00
2007,08,14,12,18,24.10
2007,08,14,12,19,24.30
2007,08,14,12,20,24.30
2007,08,14,12,21,24.40
2007,08,14,12,22,24.40
2007,08,14,12,23,24.50
2007,08,14,12,24,24.50
2007,08,14,12,25,24.60
2007,08,14,12,26,24.60
2007,08,14,12,27,24.70
2007,08,14,12,28,24.70
2007,08,14,12,29,24.80
2007,08,14,12,30,24.90
2007,08,14,12,31,24.90
2007,08,14,12,32,25.00
2007,08,14,12,33,25.00
2007,08,14,12,34,25.00
2007,08,14,12,35,25.10
2007,08,14,12,36,25.10
2007,08,14,12,37,25.10
2007,08,14,12,38,25.00
2007,08,14,12,39,24.90
2007,08,14,12,40,24.80
2007,08,14,12,41,24.70
2007,08,14,12,42,24.70
2007,08,14,12,43,24.70
2007,08,14,12,44,24.70
2007,08,14,12,45,24.80
2007,08,14,12,46,24.80
2007,08,14,12,47,24.80
2007,08,14,12,48,24.80
2007,08,14,12,49,24.80
2007,08,14,12,50,24.90
2007,08,14,12,51,24.90
2007,08,14,12,52,25.00
2007,08,14,12,53,25.00
2007,08,14,12,54,25.10
2007,08,14,12,55,25.20
2007,08,14,12,56,25.20
2007,08,14,12,57,25.30
2007,08,14,12,58,25.30
2007,08,14,12,59,25.30
2007,08,14,13,00,25.30
2007,08,14,13,01,25.30
2007,08,14,13,02,25.20
2007,08,14,13,03,25.20
2007,08,14,13,04,25.30
2007,08,14,13,05,25.30
2007,08,14,13,06,25.30
2007,08,14,13,07,25.30
2007,08,14,13,08,25.40
2007,08,14,13,09,25.50
2007,08,14,13,10,25.50
2007,08,14,13,11,25.50
2007,08,14,13,12,25.50
2007,08,14,13,13,25.60
2007,08,14,13,14,25.60
2007,08,14,13,15,25.60
2007,08,14,13,16,25.50
2007,08,14,13,17,25.40
2007,08,14,13,18,25.40
2007,08,14,13,19,25.30
2007,08,14,13,20,25.30
2007,08,14,13,21,25.30
2007,08,14,13,22,25.30
2007,08,14,13,23,25.30
2007,08,14,13,24,25.30
2007,08,14,13,25,25.30
2007,08,14,13,26,25.30
2007,08,14,13,27,25.20
2007,08,14,13,28,25.30
2007,08,14,13,29,25.30
2007,08,14,13,30,25.30
2007,08,14,13,31,25.30
2007,08,14,13,32,25.30
2007,08,14,13,33,25.20
2007,08,14,13,34,25.20
2007,08,14,13,35,25.20
2007,08,14,13,36,25.20
2007,08,14,13,37,25.20
2007,08,14,13,38,25.20
2007,08,14,13,39,25.20
2007,08,14,13,40,25.20
2007,08,14,13,41,25.20
2007,08,14,13,42,25.30
2007,08,14,13,43,25.40
2007,08,14,13,44,25.50
2007,08,14,13,45,25.60
2007,08,14,13,46,25.60
2007,08,14,13,47,25.70
2007,08,14,13,48,25.70
2007,08,14,13,49,25.80
2007,08,14,13,50,25.80
2007,08,14,13,51,25.80
2007,08,14,13,52,25.80
2007,08,14,13,53,25.80
2007,08,14,13,54,25.90
2007,08,14,13,55,25.90
2007,08,14,13,56,25.90
2007,08,14,13,57,25.90
2007,08,14,13,58,25.90
2007,08,14,13,59,25.90
2007,08,14,14,00,25.90
2007,08,14,14,01,25.90
2007,08,14,14,02,26.00
2007,08,14,14,03,26.10
2007,08,14,14,04,26.10
2007,08,14,14,05,26.20
2007,08,14,14,06,26.30
2007,08,14,14,07,26.30
2007,08,14,14,08,26.30
2007,08,14,14,09,26.10
2007,08,14,14,10,26.00
2007,08,14,14,11,25.90
2007,08,14,14,12,25.90
2007,08,14,14,13,26.00
2007,08,14,14,14,26.00
2007,08,14,14,15,26.10
2007,08,14,14,16,26.20
2007,08,14,14,17,26.20
2007,08,14,14,18,26.20
2007,08,14,14,19,26.10
2007,08,14,14,20,26.00
2007,08,14,14,21,25.90
2007,08,14,14,22,25.90
2007,08,14,14,23,25.90
2007,08,14,14,24,25.90
2007,08,14,14,25,25.90
2007,08,14,14,26,26.00
2007,08,14,14,27,26.10
2007,08,14,14,28,26.20
2007,08,14,14,29,26.40
2007,08,14,14,30,26.40
2007,08,14,14,31,26.50
2007,08,14,14,32,26.60
2007,08,14,14,33,26.60
2007,08,14,14,34,26.50
2007,08,14,14,35,26.50
2007,08,14,14,36,26.50
2007,08,14,14,37,26.60
2007,08,14,14,38,26.60
2007,08,14,14,39,26.70
2007,08,14,14,40,26.80
2007,08,14,14,41,26.90
2007,08,14,14,42,27.00
2007,08,14,14,43,27.10
2007,08,14,14,44,27.10
2007,08,14,14,45,27.20
2007,08,14,14,46,27.30
2007,08,14,14,47,27.40
2007,08,14,14,48,27.50
2007,08,14,14,49,27.60
2007,08,14,14,50,27.60
2007,08,14,14,51,27.70
2007,08,14,14,52,27.70
2007,08,14,14,53,27.70
2007,08,14,14,54,27.80
2007,08,14,14,55,27.80
2007,08,14,14,56,27.80
2007,08,14,14,57,27.80
2007,08,14,14,58,27.80
2007,08,14,14,59,27.80
2007,08,14,15,00,27.70
2007,08,14,15,01,27.70
2007,08,14,15,02,27.70
2007,08,14,15,03,27.70
2007,08,14,15,04,27.70
2007,08,14,15,05,27.70
2007,08,14,15,06,27.70
2007,08,14,15,07,27.70
2007,08,14,15,08,27.70
2007,08,14,15,09,27.70
2007,08,14,15,10,27.70
2007,08,14,15,11,27.70
2007,08,14,15,12,27.70
2007,08,14,15,13,27.60
2007,08,14,15,14,27.60
2007,08,14,15,15,27.60
2007,08,14,15,16,27.60
2007,08,14,15,17,27.60
2007,08,14,15,18,27.60
2007,08,14,15,19,27.60
2007,08,14,15,20,27.70
2007,08,14,15,21,27.70
2007,08,14,15,22,27.70
2007,08,14,15,23,27.80
2007,08,14,15,24,27.80
2007,08,14,15,25,27.70
2007,08,14,15,26,27.50
2007,08,14,15,27,27.50
2007,08,14,15,28,27.50
2007,08,14,15,29,27.60
2007,08,14,15,30,27.70
2007,08,14,15,31,27.80
2007,08,14,15,32,27.90
2007,08,14,15,33,28.00
2007,08,14,15,34,28.10
2007,08,14,15,35,28.00
2007,08,14,15,36,27.90
2007,08,14,15,37,27.90
2007,08,14,15,38,27.90
2007,08,14,15,39,27.80
2007,08,14,15,40,27.80
2007,08,14,15,41,27.80
2007,08,14,15,42,27.80
2007,08,14,15,43,27.80
2007,08,14,15,44,27.80
2007,08,14,15,45,27.80
2007,08,14,15,46,27.70
2007,08,14,15,47,27.70
2007,08,14,15,48,27.60
2007,08,14,15,49,27.40
2007,08,14,15,50,27.30
2007,08,14,15,51,27.30
2007,08,14,15,52,27.20
2007,08,14,15,53,27.20
2007,08,14,15,54,27.20
2007,08,14,15,55,27.20
2007,08,14,15,56,27.20
2007,08,14,15,57,27.20
2007,08,14,15,58,27.10
2007,08,14,15,59,27.10
2007,08,14,16,00,27.10
2007,08,14,16,01,27.10
2007,08,14,16,02,27.20
2007,08,14,16,03,27.20
2007,08,14,16,04,27.30
2007,08,14,16,05,27.30
2007,08,14,16,06,27.40
2007,08,14,16,07,27.40
2007,08,14,16,08,27.50
2007,08,14,16,09,27.50
2007,08,14,16,10,27.50
2007,08,14,16,11,27.60
2007,08,14,16,12,27.60
2007,08,14,16,13,27.70
2007,08,14,16,14,27.80
2007,08,14,16,15,27.80
2007,08,14,16,16,27.80
2007,08,14,16,17,27.80
2007,08,14,16,18,27.80
2007,08,14,16,19,27.90
2007,08,14,16,20,27.90
2007,08,14,16,21,27.90
2007,08,14,16,22,27.90
2007,08,14,16,23,27.90
2007,08,14,16,24,27.90
2007,08,14,16,25,27.80
2007,08,14,16,26,27.80
2007,08,14,16,27,27.70
2007,08,14,16,28,27.70
2007,08,14,16,29,27.70
2007,08,14,16,30,27.80
2007,08,14,16,31,27.90
2007,08,14,16,32,27.90
2007,08,14,16,33,27.90
2007,08,14,16,34,28.00
2007,08,14,16,35,28.00
2007,08,14,16,36,28.00
2007,08,14,16,37,28.00
2007,08,14,16,38,28.10
2007,08,14,16,39,28.10
2007,08,14,16,40,28.10
2007,08,14,16,41,28.00
2007,08,14,16,42,27.90
2007,08,14,16,43,27.90
2007,08,14,16,44,27.90
2007,08,14,16,45,27.90
2007,08,14,16,46,27.90
2007,08,14,16,47,28.00
2007,08,14,16,48,28.00
2007,08,14,16,49,28.00
2007,08,14,16,50,28.00
2007,08,14,16,51,28.00
2007,08,14,16,52,28.00
2007,08,14,16,53,27.90
2007,08,14,16,54,27.90
2007,08,14,16,55,27.90
2007,08,14,16,56,27.90
2007,08,14,16,57,27.90
2007,08,14,16,58,27.90
2007,08,14,16,59,27.80
2007,08,14,17,00,27.80
2007,08,14,17,01,27.80
2007,08,14,17,02,27.70
2007,08,14,17,03,27.60
2007,08,14,17,04,27.60
2007,08,14,17,05,27.40
2007,08,14,17,06,27.40
2007,08,14,17,07,27.30
2007,08,14,17,08,27.30
2007,08,14,17,09,27.30
2007,08,14,17,10,27.30
2007,08,14,17,11,27.40
2007,08,14,17,12,27.40
2007,08,14,17,13,27.40
2007,08,14,17,14,27.40
2007,08,14,17,15,27.40
2007,08,14,17,16,27.40
2007,08,14,17,17,27.40
2007,08,14,17,18,27.40
2007,08,14,17,19,27.40